Regional Weather Roundup
Issued by NWS Charleston, SC

Current Version | Previous Version | Graphics & Text | Print | Product List | Glossary On
Versions: 1 2 3 4 5 6 7 8 9 10 11 12 13 14 15 16 17 18 19 20 21 22 23 24 25 26 27 28 29 30 31 32 33 34 35 36 37 38 39 40 41 42 43 44 45 46 47 48 49 50
000 ASUS42 KCHS 230511 RWRCHS REGIONAL WEATHER ROUNDUP NATIONAL WEATHER SERVICE CHARLESTON SC 1200 AM EST THU FEB 23 2017 NOTE: "FAIR" INDICATES FEW OR NO CLOUDS BELOW 12,000 FEET WITH NO SIGNIFICANT WEATHER AND/OR OBSTRUCTIONS TO VISIBILITY. NOT ALL STATIONS ARE QUALITY CONTROLLED. USE DATA WITH CAUTION... ESPECIALLY DEWPOINT OBSERVATIONS. SCZ027-030-031-034>040-042>050-230600- ...SOUTHEAST SOUTH CAROLINA... CITY SKY/WX TMP DP RH WIND PRES REMARKS N CHARLESTON PTCLDY 61 57 87 NE6 29.86F WATERFRONT PRK N/A 64 61 90 NE7 29.85F MOUNT PLEASANT FAIR 61 57 88 CALM 29.87F JOHNS ISLAND MOCLDY 64 61 88 NE7 29.86S PINOPOLIS N/A 61 57 88 CALM 29.79F MONCKS CORNER FAIR 59 55 88 E5 29.87F SUMMERVILLE FAIR 59 55 88 CALM 29.88S BEAUFORT MCAS CLOUDY 64 61 90 NE7 29.84F BEAUFORT ARPT FAIR 63 61 94 NE8 29.84F HILTON HEAD IS CLOUDY 64 61 88 VRB6 29.84F WALTERBORO PTCLDY 61 57 88 E7 29.87F ALLENDALE FAIR 63 59 88 CALM 29.85F ...SOUTHERN MIDLANDS AND PEE DEE... CITY SKY/WX TMP DP RH WIND PRES REMARKS GEORGETOWN FAIR 57 55 94 CALM 29.90S KINGSTREE FAIR 59 54 82 E3 29.89F ORANGEBURG CLOUDY 58 56 93 NE3 29.88F BARNWELL FAIR 64 61 88 E5 29.87F AIKEN FAIR 59 54 82 NE5 29.92S MANNING FAIR 55 39 54 MISG 29.88F COLUMBIA CLOUDY 64 55 72 E6 29.88F SUMTER CLOUDY 60 53 80 NE3 29.87F FLORENCE CLOUDY 59 54 83 E5 29.90F MYRTLE BEACH CLOUDY 61 56 83 NE6 29.90 N MYRTLE BEACH MOCLDY 58 55 90 NE6 29.90F $$ GAZ063-065-086>088-099>101-113>116-118-119-134>141-150-230600- ...SOUTHEAST GEORGIA... CITY SKY/WX TMP DP RH WIND PRES REMARKS SAVANNAH ARPT CLOUDY 62 59 90 NE7 29.83F HUNTER AAF CLOUDY 64 64 100 CALM 29.80F FORT STEWART CLOUDY 62 61 96 CALM 29.80F STATESBORO CLOUDY 64 64 100 E3 29.85S SYLVANIA MOCLDY N/A N/A N/A E5 29.86S CLAXTON FAIR N/A N/A N/A NE5 29.84S ...CSRA...CENTRAL AND FAR SOUTHEAST GEORGIA... CITY SKY/WX TMP DP RH WIND PRES REMARKS THOMSON MOCLDY 61 61 100 CALM 29.93S AUGUSTA-BUSH PTCLDY 61 57 87 E3 29.86F AUGUSTA-DANIEL MOCLDY 64 56 75 NE5 29.88S SWAINSBORO MOCLDY 63 61 94 E7 29.85F VIDALIA CLOUDY 61 61 100 E5 29.83F EASTMAN FAIR 63 63 100 CALM 29.86F HAZLEHURST CLOUDY 64 64 100 NE3 29.82F ALMA MOCLDY 63 63 100 NE3 29.81F WAYCROSS MOCLDY 65 65 100 NE8 29.80R JESUP LGT RAIN 64 61 88 NE8 29.81F BAXLEY CLOUDY 64 64 100 NE5 29.82S BRUNSWICK CLOUDY 64 64 100 NE8 29.80S SAINT SIMONS CLOUDY 66 63 90 NE9 29.78F $$ SCZ027-028-034-036>038-045-046-048>050-GAZ119-141-230600- ...LAKE AND SUPPLEMENTAL COASTAL OBSERVATIONS... STATION/POSITION TIME TEMP WIND PRES WAVE SWELL AIR SEA DIR/SP/G HT/PER HT/PER/DIR (UTC) (F) (DEG/KT/KT) (MB) (FT/S) (FT/S/D) WINYAH BAY 0345 62 60/ 6 1012.0 LAKE MURRAY 0420 63 100/ 5/ 6 1011.9F ACE BASIN NERRS NOT AVBL FORT PULASKI 0448 64 61 60/ 12/ 14 1010.1F SAPELO ISLAND 0400 64 60/ 8 1009.0 $$ ANZ835-935-AMZ111-154-330-350-352-354-370-450-454-472-230600- ...C-MAN AND BUOY OBSERVATIONS... STATION/POSITION TIME TEMP WIND PRES WAVE SWELL AIR SEA DIR/SP/G HT/PER HT/PER/DIR (UTC) (F) (DEG/KT/KT) (MB) (FT/S) (FT/S/D) BUOY 41004 0350 70 70 110/ 16/ 19 1010.6 6/ 7 2/100/13 BUOY 41008 0350 64 62 80/ 8/ 10 1009.0 6/ 8 5/120/ 8 FOLLY BEACH CMAN 0400 62 40/ 10/ 12 1011.7F CAPERS NEARSHORE 0408 61 59 50/ 10/ 12 1011.3F FRIPP NEARSHORE 0408 63 61 60/ 12/ 14 1010.3F STATION/POSITION TIME TEMP WIND PRES WAVE SWELL AIR SEA DIR/SP/G HT/PER HT/PER/DIR (UTC) (F) (DEG/KT/KT) (MB) (FT/S) (FT/S/D) 5E ST. MARYS GA 0430 64 N/A 6/ 8 FRYING PAN BUOY 0450 69 69 120/ 14/ 17 1012.4F 4/ 6 2/110/ 8 BUOY 41025 0450 69 74 160/ 12/ 17 1014.2F 3/10 2/ 60/10 CAPE LOOKOUT NC 0400 65 150/ 10/ 12 1013.7F BUOY 41002 0350 67 70 110/ 19/ 21 1013.9 5/ 9 3/ 40/ 9 BUOY 41010 NOT AVBL ST AUGUSTINE FL 0500 66 67 70/ 13/ 14 1006.6F $$

USA.gov is the U.S. government's official web portal to all federal, state and local government web resources and services.